Repton, AL

2:44 PM CST on February 11, 2016 (GMT -0600)
Middleton

Weather History for KGZH - December, 2013

Change the Weather History Date:

Monday, December 2, 2013

  Actual Average (KPRN) Record (KPRN)
Temperature  
Mean Temperature 57 °F -  
Max Temperature 72 °F 64 °F 80 °F (1982)
Min Temperature 42 °F 41 °F 25 °F (1960)
Degree Days  
Heating Degree Days 8    
Growing Degree Days 7 (Base 50)    
Moisture  
Dew Point 47 °F    
Average Humidity 76    
Maximum Humidity 93    
Minimum Humidity 43    
Precipitation  
Precipitation 0.00 in - - ()
Sea Level Pressure  
Sea Level Pressure 29.91 in    
Wind  
Wind Speed 2 mph (South)    
Max Wind Speed 9 mph    
Max Gust Speed -    
Visibility 8 miles    
Events      
Averages and records for this station are not official NWS values.
T = Trace of Precipitation, MM = Missing Value Source: NWS Daily Summary

Daily Weather History Graph

Daily Weather History Graph

Search for Another Location

Airport or City:

Trip Planner

Search our weather history database for the weather conditions in past years. The results will help you decide how hot, cold, wet, or windy it might be!

Date:

Astronomy

Dec. 02, 2013 Rise Set
Actual Time 6:30 AM CST 4:44 PM CST
Civil Twilight 6:04 AM CST 5:11 PM CST
Nautical Twilight 5:34 AM CST 5:41 PM CST
Astronomical Twilight 5:04 AM CST 6:10 PM CST
Moon 5:57 AM CST (12/2) 4:45 PM CST (12/2)
Length of Visible Light 11h 07m
Length of Day
10h 14m
Waning Crescent, 0% of the Moon is Illuminated
Dec 2
Waning Crescent
Dec 2
New
Dec 9
First Quarter
Dec 17
Full
Dec 25
Last Quarter

Hourly Weather History & Observations

Time (CST) Temp. Windchill Dew Point Humidity Pressure Visibility Wind Dir Wind Speed Gust Speed Precip Events Conditions
12:53 AM 48.9 °F - 46.0 °F 90% 30.02 in 9.0 mi Calm Calm - N/A   Clear
1:53 AM 50.0 °F - 46.9 °F 89% 30.00 in 10.0 mi Calm Calm - N/A   Overcast
2:53 AM 50.0 °F - 46.9 °F 89% 30.01 in 8.0 mi Calm Calm - 0.00 in   Clear
3:53 AM 48.9 °F - 46.0 °F 90% 29.97 in 9.0 mi Calm Calm - N/A   Mostly Cloudy
4:53 AM 46.9 °F - 44.1 °F 90% 29.96 in 4.0 mi Calm Calm - N/A   Clear
5:06 AM 46.0 °F - 43.0 °F 89% 29.97 in 1.8 mi Calm Calm - N/A   Clear
5:25 AM 45.0 °F 42.6 °F 43.0 °F 93% 29.96 in 3.0 mi ESE 4.6 mph - N/A   Clear
5:46 AM 44.1 °F 40.8 °F 42.1 °F 93% 29.95 in 2.0 mi SE 5.8 mph - N/A   Clear
5:53 AM 45.0 °F 41.2 °F 42.1 °F 90% 29.94 in 5.0 mi SE 6.9 mph - N/A   Clear
6:30 AM 44.1 °F - 41.0 °F 89% 29.96 in 2.5 mi Calm Calm - N/A   Clear
6:49 AM 42.8 °F - 41.0 °F 93% 29.96 in 1.2 mi Calm Calm - N/A   Clear
6:53 AM 43.0 °F - 41.0 °F 93% 29.96 in 1.8 mi Calm Calm - N/A   Clear
7:00 AM 44.1 °F 41.5 °F 42.1 °F 93% 29.97 in 3.0 mi NNW 4.6 mph - N/A   Clear
7:53 AM 50.0 °F - 46.0 °F 86% 29.96 in 7.0 mi Calm Calm - N/A   Clear
8:53 AM 55.9 °F - 46.9 °F 72% 29.96 in 10.0 mi SSE 3.5 mph - N/A   Clear
9:53 AM 62.1 °F - 48.0 °F 60% 29.95 in 10.0 mi Calm Calm - N/A   Clear
10:53 AM 66.9 °F - 50.0 °F 54% 29.91 in 10.0 mi Variable 6.9 mph - N/A   Clear
11:53 AM 69.1 °F - 48.9 °F 49% 29.88 in 10.0 mi Variable 3.5 mph - N/A   Clear
12:53 PM 70.0 °F - 48.0 °F 46% 29.85 in 10.0 mi Variable 3.5 mph - N/A   Clear
1:53 PM 72.0 °F - 48.0 °F 43% 29.83 in 10.0 mi Variable 4.6 mph - N/A   Clear
2:53 PM 71.1 °F - 48.0 °F 44% 29.82 in 10.0 mi SW 9.2 mph - N/A   Partly Cloudy
3:53 PM 70.0 °F - 48.0 °F 46% 29.81 in 10.0 mi South 9.2 mph - N/A   Clear
4:53 PM 64.0 °F - 48.9 °F 58% 29.82 in 10.0 mi SSW 3.5 mph - N/A   Partly Cloudy
5:53 PM 61.0 °F - 50.0 °F 67% 29.82 in 10.0 mi South 3.5 mph - N/A   Overcast
6:53 PM 62.1 °F - 51.1 °F 67% 29.84 in 8.0 mi South 6.9 mph - N/A   Overcast
7:53 PM 57.9 °F - 51.1 °F 78% 29.84 in 10.0 mi South 5.8 mph - N/A   Mostly Cloudy
8:53 PM 57.9 °F - 51.1 °F 78% 29.85 in 10.0 mi South 4.6 mph - N/A   Overcast
9:53 PM 59.0 °F - 50.0 °F 72% 29.86 in 10.0 mi Calm Calm - N/A   Overcast
10:53 PM 55.0 °F - 50.0 °F 83% 29.85 in 10.0 mi SSE 3.5 mph - N/A   Scattered Clouds
11:53 PM 55.9 °F - 51.1 °F 84% 29.84 in 10.0 mi Calm Calm - N/A   Mostly Cloudy